| time (UTC) | temp F | wind direction | speed MPH | gust MPH | rain 1hr in | rain 24hr in | rain mn in | humidity % | barometer mb |
| 20260502215004 | 52 | 162 | 0.0 | 1.0 | 0.00 | 0.17 | 0.17 | 95 | 1010.9 |
| 20260502213004 | 52 | 162 | 0.0 | 2.0 | 0.00 | 0.17 | 0.17 | 94 | 1010.9 |
| 20260502212004 | 53 | 162 | 0.0 | 1.0 | 0.00 | 0.17 | 0.17 | 95 | 1011.2 |
| 20260502210007 | 52 | 162 | 0.0 | 1.0 | 0.00 | 0.17 | 0.17 | 93 | 1011.2 |
| 20260502205004 | 53 | 162 | 0.0 | 1.0 | 0.00 | 0.17 | 0.17 | 93 | 1011.1 |
| 20260502204004 | 53 | 162 | 1.0 | 2.0 | 0.00 | 0.17 | 0.17 | 93 | 1011.3 |
| 20260502203004 | 53 | 162 | 0.0 | 5.0 | 0.00 | 0.17 | 0.17 | 94 | 1011.2 |
| 20260502202004 | 53 | 159 | 0.0 | 3.0 | 0.00 | 0.17 | 0.17 | 94 | 1011.2 |
| 20260502201004 | 53 | 157 | 0.0 | 3.0 | 0.00 | 0.17 | 0.17 | 94 | 1011.3 |
| 20260502200004 | 53 | 154 | 0.0 | 3.0 | 0.00 | 0.17 | 0.17 | 94 | 1011.3 |
| 20260502195004 | 53 | 151 | 0.0 | 1.0 | 0.00 | 0.17 | 0.17 | 93 | 1011.3 |
| 20260502193004 | 53 | 150 | 0.0 | 3.0 | 0.00 | 0.17 | 0.17 | 92 | 1011.4 |
| 20260502192004 | 53 | 150 | 2.0 | 7.0 | 0.00 | 0.17 | 0.17 | 92 | 1011.4 |
| 20260502191004 | 53 | 139 | 4.0 | 8.0 | 0.00 | 0.17 | 0.17 | 92 | 1011.3 |
| 20260502190004 | 53 | 133 | 5.0 | 10.0 | 0.00 | 0.17 | 0.17 | 92 | 1011.2 |
| 20260502184004 | 54 | 145 | 5.0 | 12.0 | 0.00 | 0.17 | 0.17 | 91 | 1011.4 |
| 20260502183005 | 54 | 131 | 8.0 | 14.0 | 0.00 | 0.17 | 0.17 | 91 | 1011.2 |
| 20260502182004 | 55 | 127 | 9.0 | 12.0 | 0.00 | 0.17 | 0.17 | 91 | 1011.3 |
| 20260502181004 | 55 | 129 | 9.0 | 15.0 | 0.00 | 0.17 | 0.17 | 91 | 1011.3 |
| 20260502164004 | 55 | 123 | 9.0 | 12.0 | 0.00 | 0.17 | 0.17 | 91 | 1012.4 |
| 20260502163004 | 55 | 130 | 10.0 | 14.0 | 0.00 | 0.17 | 0.17 | 90 | 1012.5 |
| 20260502162006 | 56 | 133 | 9.0 | 12.0 | 0.00 | 0.17 | 0.17 | 92 | 1012.4 |
| 20260502161006 | 56 | 130 | 7.0 | 10.0 | 0.00 | 0.17 | 0.17 | 92 | 1012.6 |
| 20260502152006 | 55 | 131 | 9.0 | 14.0 | 0.01 | 0.17 | 0.17 | 93 | 1013.0 |
| 20260502151006 | 54 | 134 | 8.0 | 12.0 | 0.07 | 0.17 | 0.17 | 93 | 1013.2 |
| 20260502123006 | 63 | 137 | 7.0 | 14.0 | 0.00 | 0.00 | 0.00 | 75 | 1015.2 |
| 20260502122006 | 63 | 127 | 10.0 | 15.0 | 0.00 | 0.00 | 0.00 | 73 | 1015.4 |
| 20260502121006 | 63 | 134 | 10.0 | 14.0 | 0.00 | 0.00 | 0.00 | 73 | 1015.7 |
| 20260502115006 | 64 | 135 | 8.0 | 15.0 | 0.00 | 0.00 | 0.00 | 72 | 1015.7 |
| 20260502114006 | 66 | 129 | 10.0 | 15.0 | 0.00 | 0.00 | 0.00 | 68 | 1015.8 |
| 20260502111006 | 67 | 130 | 9.0 | 12.0 | 0.00 | 0.00 | 0.00 | 63 | 1016.1 |
| 20260502105005 | 65 | 139 | 2.0 | 7.0 | 0.00 | 0.00 | 0.00 | 66 | 1016.5 |
| 20260502103006 | 64 | 136 | 5.0 | 9.0 | 0.00 | 0.00 | 0.00 | 73 | 1016.7 |
| 20260502102005 | 63 | 132 | 4.0 | 10.0 | 0.00 | 0.00 | 0.00 | 73 | 1016.9 |
| 20260502101006 | 62 | 129 | 5.0 | 10.0 | 0.00 | 0.00 | 0.00 | 77 | 1016.8 |
| 20260502091005 | 60 | 136 | 3.0 | 7.0 | 0.00 | 0.00 | 0.00 | 84 | 1017.3 |
| 20260502071005 | 53 | 152 | 0.0 | 3.0 | 0.00 | 0.00 | 0.00 | 94 | 1018.2 |
| 20260502070005 | 53 | 153 | 2.0 | 3.0 | 0.00 | 0.00 | 0.00 | 94 | 1018.2 |
| 20260502064006 | 52 | 163 | 1.0 | 3.0 | 0.00 | 0.00 | 0.00 | 95 | 1018.3 |
| 20260502063005 | 52 | 175 | 1.0 | 3.0 | 0.00 | 0.00 | 0.00 | 95 | 1018.4 |
| 20260502062006 | 52 | 203 | 0.0 | 2.0 | 0.00 | 0.00 | 0.00 | 95 | 1018.2 |
| 20260502061005 | 52 | 230 | 1.0 | 2.0 | 0.00 | 0.00 | 0.00 | 95 | 1018.3 |
| 20260502055005 | 52 | 302 | 0.0 | 1.0 | 0.00 | 0.00 | 0.00 | 95 | 1018.3 |
| 20260502054005 | 51 | 302 | 0.0 | 1.0 | 0.00 | 0.00 | 0.00 | 95 | 1018.3 |
| 20260502053007 | 51 | 292 | 0.0 | 1.0 | 0.00 | 0.00 | 0.00 | 95 | 1018.3 |
| 20260502052005 | 51 | 292 | 0.0 | 2.0 | 0.00 | 0.00 | 0.00 | 95 | 1018.3 |
| 20260502051005 | 51 | 292 | 1.0 | 3.0 | 0.00 | 0.00 | 0.00 | 95 | 1018.3 |
| 20260502050005 | 51 | 288 | 1.0 | 3.0 | 0.00 | 0.00 | 0.00 | 95 | 1018.4 |
| 20260502045005 | 51 | 281 | 1.0 | 3.0 | 0.00 | 0.00 | 0.00 | 95 | 1018.3 |
| 20260502044006 | 51 | 274 | 0.0 | 3.0 | 0.00 | 0.00 | 0.00 | 95 | 1018.4 |
| 20260502043005 | 50 | 273 | 0.0 | 1.0 | 0.00 | 0.00 | 0.00 | 95 | 1018.4 |
| 20260502042005 | 50 | 273 | 0.0 | 1.0 | 0.00 | 0.00 | 0.00 | 95 | 1018.4 |
| 20260502041004 | 50 | 273 | 0.0 | 1.0 | 0.00 | 0.00 | 0.00 | 94 | 1018.4 |
| 20260502040005 | 50 | 273 | 0.0 | 1.0 | 0.00 | 0.00 | 0.00 | 94 | 1018.4 |
| 20260502035007 | 50 | 273 | 0.0 | 1.0 | 0.00 | 0.00 | 0.00 | 94 | 1018.5 |
| 20260502034005 | 50 | 273 | 0.0 | 1.0 | 0.00 | 0.00 | 0.00 | 94 | 1018.7 |
| 20260502032004 | 50 | 298 | 0.0 | 1.0 | 0.00 | 0.00 | 0.00 | 94 | 1018.8 |
| 20260502031005 | 50 | 296 | 0.0 | 1.0 | 0.00 | 0.00 | 0.00 | 94 | 1018.9 |
| 20260502030005 | 50 | 297 | 0.0 | 1.0 | 0.00 | 0.00 | 0.00 | 94 | 1019.0 |
| 20260502025005 | 50 | 297 | 0.0 | 1.0 | 0.00 | 0.00 | 0.00 | 94 | 1019.0 |
| 20260502024005 | 50 | 296 | 0.0 | 2.0 | 0.00 | 0.00 | 0.00 | 94 | 1019.1 |
| 20260502023005 | 50 | 293 | 0.0 | 2.0 | 0.00 | 0.00 | 0.00 | 93 | 1019.3 |
| 20260502022005 | 50 | 292 | 1.0 | 3.0 | 0.00 | 0.00 | 0.00 | 93 | 1019.2 |
| 20260502021005 | 50 | 290 | 1.0 | 3.0 | 0.00 | 0.00 | 0.00 | 93 | 1019.3 |
| 20260502020005 | 50 | 293 | 1.0 | 3.0 | 0.00 | 0.00 | 0.00 | 93 | 1019.3 |
| 20260502014005 | 51 | 296 | 1.0 | 3.0 | 0.00 | 0.00 | 0.00 | 93 | 1019.5 |
| 20260502013005 | 51 | 309 | 1.0 | 3.0 | 0.00 | 0.00 | 0.00 | 93 | 1019.5 |
| 20260502012005 | 51 | 303 | 2.0 | 5.0 | 0.00 | 0.00 | 0.00 | 93 | 1019.5 |
| 20260502011006 | 51 | 288 | 1.0 | 5.0 | 0.00 | 0.00 | 0.00 | 93 | 1019.6 |
| 20260502005005 | 51 | 265 | 1.0 | 3.0 | 0.00 | 0.00 | 0.00 | 93 | 1019.9 |
| 20260502003005 | 51 | 272 | 1.0 | 3.0 | 0.00 | 0.00 | 0.00 | 94 | 1020.1 |
| 20260502002005 | 51 | 262 | 1.0 | 3.0 | 0.00 | 0.00 | 0.00 | 93 | 1020.0 |
| 20260502001005 | 51 | 279 | 3.0 | 8.0 | 0.00 | 0.00 | 0.00 | 93 | 1020.0 |
| 20260502000005 | 51 | 287 | 1.0 | 5.0 | 0.00 | 0.00 | 0.00 | 94 | 1020.2 |
| 20260501235005 | 51 | 293 | 1.0 | 3.0 | 0.00 | 0.00 | 0.00 | 94 | 1020.3 |
| 20260501234005 | 51 | 268 | 2.0 | 5.0 | 0.00 | 0.00 | 0.00 | 94 | 1020.4 |
| 20260501233007 | 51 | 218 | 1.0 | 8.0 | 0.00 | 0.00 | 0.00 | 94 | 1020.4 |
| 20260501230004 | 51 | 223 | 1.0 | 3.0 | 0.00 | 0.00 | 0.00 | 94 | 1020.6 |
| 20260501224005 | 51 | 298 | 2.0 | 5.0 | 0.00 | 0.00 | 0.00 | 94 | 1020.4 |
| 20260501221004 | 51 | 298 | 2.0 | 7.0 | 0.00 | 0.00 | 0.00 | 94 | 1020.5 |